Location: Bruderhein
(53.8035°N, 112.9265°W)
Time: 12:50:33
(UTC+00:00)

deb Delta 139 - Pass Details

Date: 06 December 2023
Orbit: 731 x 794 km, 98.6° (Epoch: 01 March)

Event Time Altitude Azimuth Distance (km) Brightness Sun altitude
Rises 13:23:49 0° 25° (NNE) 3,194 ? -17.8°
Reaches altitude 10° 13:26:46 10° 43° (NE) 2,257 ? -17.4°
Maximum altitude 13:30:17 19° 89° (E) 1,696 ? -16.9°
Drops below altitude 10° 13:33:47 10° 135° (SE) 2,232 ? -16.4°
Sets 13:36:39 0° 153° (SSE) 3,147 ? -16.0°
